Home   Weather   Dickinson   Past weeks

Flag for USA Past Weather in Dickinson, North Dakota, USA — Yesterday and Last 2 Weeks

Now
59 °F

Overcast.


Feels Like: 59 °F
Forecast: 27 / 58 °F
Wind: 5 mph from North

Location: Dickinson Municipal Airport

Current Time: Apr 29, 2017 at 5:46:23 pm

Latest Report: Apr 29, 2017 at 4:56 pm


Visibility: 10 mi

Pressure: 30.19 "Hg (27.67 "Hg at 735m altitude)

Humidity: 20%

Dew Point: 18 °F

Location of DickinsonLocation

Past Weather in Dickinson — Graph

°F

Dickinson Temperature Yesterday

Maximum temperature yesterday: 53 °F (at 3:56 pm)
Minimum temperature yesterday: 24 °F (at 4:56 am)
Average temperature yesterday: 39 °F

High & Low Weather Summary for the Past Weeks

 TemperatureHumidityPressure
High62 °F (Apr 14, 3:56 pm)100% (Apr 18, 4:12 am)30.29 "Hg (Apr 18, 4:12 am)
Low13 °F (Apr 17, 4:56 am)19% (Apr 29, 3:56 pm)29.63 "Hg (Apr 24, 3:20 am)
Average39 °F73%29.98 "Hg
* Reported Apr 14 3:56 pm — Apr 29 3:56 pm, Dickinson, Weather by CustomWeather, © 2017

Note: Actual official high and low records may vary slightly from our data, if they occured in-between our weather recording intervals... More about our weather records

Advertising

Dickinson Weather History for the Previous 24 Hours

Scroll right to see more
 ConditionsComfort  
Time TempWeatherWind HumidityBarometerVisibility
3:56 pm
Sat, Apr 29
59 °FPassing clouds.No wind19%30.21 "Hg10 mi
2:56 pm57 °FScattered clouds.N/A23%30.24 "Hg10 mi
1:56 pm57 °FSunny.7 mph23%30.25 "Hg10 mi
12:56 pm57 °FPartly sunny.9 mph22%30.26 "Hg10 mi
11:56 am57 °FSunny.8 mph21%30.27 "Hg10 mi
10:56 am54 °FSunny.5 mph24%30.28 "Hg10 mi
9:56 am54 °FSunny.5 mph26%30.29 "Hg10 mi
8:56 am52 °FSunny.13 mph30%30.29 "Hg10 mi
7:56 am46 °FSunny.7 mph44%30.27 "Hg10 mi
6:56 am35 °FSunny.3 mph67%30.26 "Hg10 mi
5:56 am29 °FSunny.10 mph72%30.27 "Hg10 mi
4:56 am28 °FSunny.10 mph72%30.26 "Hg10 mi
3:56 am29 °FClear.5 mph66%30.23 "Hg10 mi
2:56 am30 °FClear.5 mph64%30.23 "Hg10 mi
1:56 am26 °FClear.7 mph69%30.24 "Hg10 mi
12:56 am28 °FClear.8 mph64%30.24 "Hg10 mi
11:56 pm
Fri, Apr 28
29 °FClear.7 mph58%30.23 "Hg10 mi
10:56 pm31 °FClear.8 mph57%30.23 "Hg10 mi
9:56 pm34 °FClear.5 mph48%30.22 "Hg10 mi
8:56 pm39 °FClear.7 mph39%30.19 "Hg10 mi
7:56 pm46 °FClear.5 mph27%30.16 "Hg10 mi
6:56 pm50 °FClear.5 mph27%30.14 "Hg10 mi
5:56 pm52 °FSunny.5 mph22%30.12 "Hg10 mi
Weather by CustomWeather, © 2017

See weather overviewHow to use our weather pages